CAPE
0 0 0 0 0 0 0 0 0 0 0 0 0 0 0 0 0 0 0 0 0 0 0 0 0 0 0 0 0 0 0 0 17 83 136 56 109 195 282 351 481 547 308 115 17
0 0 0 0 0 0 0 0 0 0 0 0 0 0 0 0 0 0 0 0 0 0 0 0 0 0 0 0 0 0 0 0 0 36 70 41 72 164 240 220 194 169 150 75 34
0 0 0 0 0 0 0 0 0 0 0 0 0 0 0 0 0 0 0 0 0 0 0 0 0 0 0 0 0 0 0 0 20 27 21 33 58 199 196 152 170 132 84 77 57
0 0 0 0 0 0 0 0 0 0 0 0 0 0 0 0 0 0 0 0 0 0 0 0 0 0 0 0 0 0 138 43 121 23 4 40 139 163 141 146 97 25 1 16 17
0 0 0 0 0 0 0 0 0 0 0 0 0 0 0 0 0 0 0 0 0 0 0 0 0 0 0 0 0 0 204 77 89 52 71 64 100 130 144 96 0 0 0 0 12
0 0 0 0 0 0 0 0 0 0 0 0 0 0 0 0 0 0 0 0 0 0 0 0 0 0 0 0 0 152 176 66 47 27 9 20 43 95 83 7 3 22 2 0 4
0 0 0 0 0 0 0 0 0 0 0 0 0 0 0 0 0 0 0 0 0 0 0 0 0 0 0 0 14 123 147 10 0 0 0 0 0 12 3 3 0 0 0 0 9
0 0 0 0 0 0 0 0 0 0 0 0 0 0 0 0 0 0 0 0 0 0 0 0 0 0 0 0 12 47 41 14 0 0 0 0 4 7 0 0 0 0 0 0 0
0 0 0 0 0 0 0 0 0 0 0 0 0 0 0 0 0 0 0 0 0 0 0 0 0 0 0 0 0 0 0 0 0 0 0 0 4 4 0 0 0 0 0 0 0
0 0 0 0 0 0 0 0 0 0 0 0 0 0 0 0 0 0 0 0 0 0 0 0 0 0 0 0 0 0 0 0 0 0 0 0 0 0 0 0 0 0 0 0 0
0 0 0 0 0 0 0 0 0 0 0 0 0 0 0 0 0 0 0 0 0 0 0 0 0 0 0 0 0 0 0 0 0 0 0 0 0 0 0 0 0 0 0 0 0
0 0 0 0 0 0 0 0 0 0 0 0 0 0 0 0 0 0 0 0 0 0 0 0 0 0 0 0 0 0 0 0 0 0 0 0 0 0 0 0 0 0 0 2 0
0 0 0 0 0 0 0 0 0 0 0 0 0 0 0 0 0 0 0 0 0 0 0 0 0 0 0 0 0 0 0 0 0 0 0 0 0 0 0 28 70 21 3 0 0
0 0 0 0 0 0 0 0 0 0 0 0 0 0 0 0 0 0 0 0 0 0 0 0 0 0 0 0 0 0 0 0 0 0 0 0 0 0 0 3 60 30 19 22 0
0 0 0 0 0 0 0 0 0 0 0 0 0 0 0 0 0 0 0 0 0 0 0 0 0 0 0 0 0 0 0 0 0 0 0 0 0 0 0 0 34 39 1 0 0
0 0 0 0 0 0 0 0 0 0 0 0 0 0 0 0 0 0 0 0 0 0 0 0 0 0 0 0 0 0 0 0 0 0 0 0 1 18 5 0 14 84 0 0 0
0 0 0 0 0 0 0 0 0 0 0 0 0 0 0 0 0 0 0 0 0 0 0 0 0 0 0 0 0 0 0 0 0 0 0 0 12 27 124 101 3 36 0 0 0
0 0 0 0 0 0 0 0 0 0 0 0 0 0 0 0 0 0 0 0 0 0 0 0 0 0 0 0 0 0 0 0 0 0 0 3 10 10 62 0 0 0 0 0 0
0 0 0 0 0 0 0 0 0 0 0 0 0 0 0 0 0 0 0 0 0 0 0 0 0 0 0 0 0 0 0 0 0 0 0 0 0 15 0 0 0 0 0 0 0
0 0 0 0 0 0 0 0 0 0 0 0 0 0 0 0 0 0 0 0 0 0 0 0 0 0 0 0 0 0 0 0 0 0 0 0 0 0 0 0 0 0 0 0 0
0 0 0 0 0 0 0 0 0 0 0 0 0 0 0 0 0 0 0 0 0 0 0 0 0 0 0 0 0 0 0 0 0 0 0 0 0 0 0 0 0 0 0 0 0
0 0 0 0 0 0 0 0 0 0 0 0 0 0 0 0 0 0 0 0 0 0 0 0 0 0 0 0 0 0 0 0 0 0 0 0 0 0 0 0 0 0 0 0 0
0 0 0 0 0 0 0 0 0 0 0 0 0 0 0 0 0 0 0 0 0 0 0 0 0 0 0 0 0 0 0 0 0 0 0 0 0 0 0 0 0 0 0 0 0
0 0 0 0 0 0 0 0 0 0 0 0 0 0 0 1 0 0 0 0 0 0 0 0 0 0 0 0 0 0 0 0 0 0 0 0 0 0 0 0 0 0 0 0 0
0 0 0 0 0 0 0 0 0 0 0 0 0 2 0 0 0 0 0 0 0 0 0 0 0 0 0 0 0 0 0 0 0 0 0 0 0 0 0 0 0 0 0 0 0
0 0 0 0 0 0 0 0 0 0 0 0 0 0 0 0 0 0 0 0 0 0 0 0 0 0 0 0 0 0 0 0 0 0 0 0 0 0 0 0 0 0 0 0 0
0 0 0 0 0 0 0 0 0 0 0 0 0 1 41 41 0 0 0 0 0 0 0 0 0 0 0 0 0 0 0 0 0 0 0 0 0 0 0 0 0 0 0 0 0
CIN
-0 -0 -0 -0 -0 -0 -0 -0 -0 -0 -0 -0 -0 -0 -0 -0 -0 -0 -0 -0 -0 -0 -0 -0 -0 -0 -0 -0 -0 -0 -0 -0 -93 -63 -118 -302 -245 -332 -310 -234 -203 -197 -227 -310 -277
-0 -0 -0 -0 -0 -0 -0 -0 -0 -0 -0 -0 -0 -0 -0 -0 -0 -0 -0 -0 -0 -0 -0 -0 -0 -0 -0 -0 -0 -0 -0 -0 -0 -178 -140 -266 -253 -336 -270 -240 -292 -295 -289 -305 -293
-0 -0 -0 -0 -0 -0 -0 -0 -0 -0 -0 -0 -0 -0 -0 -0 -0 -0 -0 -0 -0 -0 -0 -0 -0 -0 -0 -0 -0 -0 -0 -0 -214 -213 -244 -270 -319 -334 -276 -281 -305 -309 -301 -240 -246
-0 -0 -0 -0 -0 -0 -0 -0 -0 -0 -0 -0 -0 -0 -0 -0 -0 -0 -0 -0 -0 -0 -0 -0 -0 -0 -0 -0 -0 -0 -240 -232 -191 -257 -251 -232 -307 -300 -263 -297 -306 -292 -105 -290 -256
-0 -0 -0 -0 -0 -0 -0 -0 -0 -0 -0 -0 -0 -0 -0 -0 -0 -0 -0 -0 -0 -0 -0 -0 -0 -0 -0 -0 -0 -0 -228 -285 -263 -246 -250 -313 -266 -365 -321 -279 -0 -0 -0 -113 -263
-0 -0 -0 -0 -0 -0 -0 -0 -0 -0 -0 -0 -0 -0 -0 -0 -0 -0 -0 -0 -0 -0 -0 -0 -0 -0 -0 -0 -0 -258 -274 -298 -264 -287 -295 -294 -320 -346 -396 -458 -279 -241 -109 -0 -202
-0 -0 -0 -0 -0 -0 -0 -0 -0 -0 -0 -0 -0 -0 -0 -0 -0 -0 -0 -0 -0 -0 -0 -0 -0 -0 -0 -0 -395 -271 -220 -182 -0 -0 -0 -0 -0 -412 -491 -436 -6 -0 -0 -0 -239
-0 -0 -0 -0 -0 -0 -0 -0 -0 -0 -0 -0 -0 -0 -0 -0 -0 -0 -0 -0 -0 -0 -0 -0 -0 -0 -0 -0 -300 -237 -282 -204 -0 -0 -0 -0 -275 -385 -0 -0 -0 -0 -0 -0 -0
-0 -0 -0 -0 -0 -0 -0 -0 -0 -0 -0 -0 -0 -0 -0 -0 -0 -0 -0 -0 -0 -0 -0 -0 -0 -0 -0 -0 -0 -0 -0 -0 -0 -0 -0 -0 -215 -190 -0 -0 -0 -0 -0 -0 -0
-0 -0 -0 -0 -0 -0 -0 -0 -0 -0 -0 -0 -0 -0 -0 -0 -0 -0 -0 -0 -0 -0 -0 -0 -0 -0 -0 -0 -0 -0 -0 -0 -0 -0 -0 -0 -0 -0 -0 -0 -0 -0 -0 -0 -0
-0 -0 -0 -0 -0 -0 -0 -0 -0 -0 -0 -0 -0 -0 -0 -0 -0 -0 -0 -0 -0 -0 -0 -0 -0 -0 -0 -0 -0 -0 -0 -0 -0 -0 -0 -0 -0 -0 -0 -0 -0 -0 -0 -0 -0
-0 -0 -0 -0 -0 -0 -0 -0 -0 -0 -0 -0 -0 -0 -0 -0 -0 -0 -0 -0 -0 -0 -0 -0 -0 -0 -0 -0 -0 -0 -0 -0 -0 -0 -0 -0 -0 -0 -0 -0 -0 -0 -0 -169 -0
-0 -0 -0 -0 -0 -0 -0 -0 -0 -0 -0 -0 -0 -0 -0 -0 -0 -0 -0 -0 -0 -0 -0 -0 -0 -0 -0 -0 -0 -0 -0 -0 -0 -0 -0 -0 -0 -0 -0 -197 -171 -213 -173 -0 -0
-0 -0 -0 -0 -0 -0 -0 -0 -0 -0 -0 -0 -0 -0 -0 -0 -0 -0 -0 -0 -0 -0 -0 -0 -0 -0 -0 -0 -0 -0 -0 -0 -0 -0 -0 -0 -0 -0 -0 -138 -171 -230 -186 -162 -0
-0 -0 -0 -0 -0 -0 -0 -0 -0 -0 -0 -0 -0 -0 -0 -0 -0 -0 -0 -0 -0 -0 -0 -0 -0 -0 -0 -0 -0 -0 -0 -0 -0 -12 -0 -0 -0 -0 -0 -0 -226 -204 -184 -0 -0
-0 -0 -0 -0 -0 -0 -0 -0 -0 -0 -0 -0 -0 -0 -0 -0 -0 -0 -0 -0 -0 -0 -0 -0 -0 -0 -0 -0 -0 -0 -0 -0 -0 -0 -0 -0 -52 -157 -71 -0 -265 -147 -0 -0 -0
-0 -0 -0 -0 -0 -0 -0 -0 -0 -0 -0 -0 -0 -0 -0 -0 -0 -0 -0 -0 -0 -0 -0 -0 -0 -0 -0 -0 -0 -0 -0 -0 -0 -0 -0 -0 -139 -165 -190 -180 -248 -214 -0 -0 -0
-0 -0 -0 -0 -0 -0 -0 -0 -0 -0 -0 -0 -0 -0 -0 -0 -0 -0 -0 -0 -0 -0 -0 -0 -0 -0 -0 -0 -0 -0 -0 -0 -0 -0 -0 -75 -81 -210 -221 -0 -0 -0 -0 -0 -0
-0 -0 -0 -0 -0 -0 -0 -0 -0 -0 -0 -0 -0 -0 -0 -0 -0 -0 -0 -0 -0 -0 -0 -0 -0 -0 -0 -0 -0 -0 -0 -0 -0 -0 -0 -0 -0 -227 -0 -0 -0 -0 -0 -0 -0
-0 -0 -0 -0 -0 -0 -0 -0 -0 -0 -0 -0 -0 -0 -0 -0 -0 -0 -0 -0 -0 -0 -0 -0 -0 -0 -0 -0 -0 -0 -0 -0 -0 -0 -0 -0 -0 -0 -0 -0 -0 -0 -0 -0 -0
-0 -0 -0 -0 -0 -0 -0 -0 -0 -0 -0 -0 -0 -0 -0 -0 -0 -0 -0 -0 -0 -0 -0 -0 -0 -0 -0 -0 -0 -0 -0 -0 -0 -0 -0 -0 -0 -0 -0 -0 -0 -0 -0 -0 -0
-0 -0 -0 -0 -0 -0 -0 -0 -0 -0 -0 -0 -0 -0 -0 -0 -0 -0 -0 -0 -0 -0 -0 -0 -0 -0 -0 -0 -0 -0 -0 -0 -0 -0 -0 -0 -0 -0 -0 -0 -0 -0 -0 -0 -0
-0 -0 -0 -0 -0 -0 -0 -0 -0 -0 -0 -0 -0 -0 -0 -0 -0 -0 -0 -0 -0 -0 -0 -0 -0 -0 -0 -0 -0 -0 -0 -0 -0 -0 -0 -0 -0 -0 -0 -0 -0 -0 -0 -0 -0
-0 -0 -0 -0 -0 -0 -0 -0 -0 -0 -0 -0 -0 -0 -0 -103 -0 -0 -0 -0 -0 -0 -0 -0 -0 -0 -0 -0 -0 -0 -0 -0 -0 -0 -0 -0 -0 -0 -0 -0 -0 -0 -0 -0 -0
-0 -0 -0 -0 -0 -0 -0 -0 -0 -0 -0 -0 -0 -78 -22 -0 -0 -0 -0 -0 -0 -0 -0 -0 -0 -0 -0 -0 -0 -0 -0 -0 -0 -0 -0 -0 -0 -0 -0 -0 -0 -0 -0 -0 -0
-0 -0 -0 -0 -0 -0 -0 -0 -0 -0 -0 -0 -0 -1 -0 -0 -0 -0 -0 -0 -0 -0 -0 -0 -0 -0 -0 -0 -0 -0 -0 -0 -0 -0 -0 -0 -0 -0 -0 -0 -0 -0 -0 -0 -0
-0 -0 -0 -0 -0 -0 -0 -0 -0 -0 -0 -0 -0 -105 -108 -165 -0 -0 -0 -0 -0 -0 -0 -0 -0 -0 -0 -0 -0 -0 -0 -0 -0 -0 -0 -0 -0 -0 -0 -0 -0 -0 -0 -0 -0
Wind_Speed
32 33 34 34 34 34 35 36 35 35 33 30 29 27 24 22 19 15 16 16 8 4 6 3 4 6 7 20 20 22 22 23 23 24 23 23 24 24 23 24 21 17 20 21 21
33 34 34 35 35 35 35 35 35 34 32 30 29 26 23 20 17 17 18 11 5 8 3 10 13 12 13 18 19 20 19 20 20 21 23 24 26 25 26 27 26 24 23 21 19
33 35 36 36 36 36 36 35 35 34 31 30 29 24 22 18 13 12 13 4 7 4 10 2 6 7 14 18 17 17 17 17 19 21 24 24 25 23 26 25 23 23 23 25 26
33 34 35 37 37 37 36 35 35 34 32 29 27 23 21 16 13 14 16 4 2 8 7 2 4 11 12 13 17 17 16 16 18 19 22 21 23 25 26 24 22 23 24 25 26
33 34 35 36 37 37 36 36 35 33 32 28 24 21 17 15 14 15 4 1 1 8 6 4 6 10 10 12 15 16 16 13 15 19 20 21 22 24 27 26 23 23 22 24 25
32 33 34 35 36 36 36 36 34 33 28 24 21 19 16 15 14 9 2 1 6 7 5 3 8 7 9 12 13 15 17 17 15 17 19 20 17 18 21 25 23 20 20 21 20
32 33 34 35 35 36 36 35 33 29 25 21 18 17 16 16 15 7 4 9 7 6 2 10 6 10 8 13 14 18 18 16 14 15 16 19 20 20 20 21 23 21 21 19 18
32 33 34 35 35 36 36 34 32 26 20 17 17 17 17 14 13 10 13 10 12 13 15 17 16 11 8 13 12 12 14 13 13 10 9 13 15 15 16 17 20 19 19 18 17
32 33 33 34 35 36 35 33 27 21 17 16 18 17 16 15 15 14 12 13 13 19 23 17 15 7 4 7 8 8 9 10 9 11 10 9 12 12 14 15 16 17 17 16 16
32 33 33 34 35 36 34 29 20 20 19 19 19 17 17 16 17 13 12 13 13 18 12 9 10 6 6 1 1 7 10 9 8 6 9 11 10 11 12 12 13 14 13 13 13
31 32 33 33 34 32 30 23 22 21 23 25 23 21 22 20 19 15 13 12 14 16 13 12 7 5 5 2 4 9 9 8 13 11 12 10 12 11 11 10 10 11 10 11 12
31 31 32 32 33 27 22 18 19 24 27 27 31 30 29 22 20 18 11 17 15 13 15 14 11 6 6 5 3 5 6 9 13 12 12 12 13 12 11 9 9 8 8 9 11
30 31 31 32 29 22 20 19 24 21 24 24 18 21 20 13 18 19 16 18 17 12 10 12 11 6 7 6 5 4 4 4 8 11 13 13 14 11 10 10 9 6 6 9 11
30 30 30 32 19 24 21 25 27 18 21 19 18 16 15 14 19 20 16 17 18 17 15 13 17 13 12 12 4 3 4 6 9 8 7 8 11 8 9 8 10 11 10 11 13
31 30 29 25 25 24 23 27 24 16 19 18 15 14 15 12 15 18 16 18 17 14 13 8 9 17 21 14 6 13 9 8 8 9 10 10 13 9 8 7 9 9 11 12 14
32 31 29 24 26 23 26 27 16 18 20 17 14 14 11 17 16 14 16 15 19 18 18 21 18 22 10 13 6 10 12 12 12 10 11 9 10 9 8 8 7 9 11 12 14
33 32 31 26 24 23 26 20 19 21 19 19 19 16 13 14 19 16 18 19 16 12 17 16 18 16 10 8 6 6 9 13 10 8 11 9 10 11 10 9 6 8 10 12 14
33 34 28 27 27 24 21 18 22 21 21 20 21 19 16 14 18 17 17 22 24 13 11 14 12 15 9 6 5 5 6 8 7 9 11 13 10 13 13 14 10 9 11 13 14
32 28 28 24 19 16 18 21 20 20 20 23 20 15 14 16 17 14 17 21 22 20 11 12 13 17 14 11 10 9 12 13 14 15 13 13 14 16 13 12 12 11 12 13 14
28 27 26 22 12 14 18 23 21 17 20 19 17 16 13 11 8 12 16 22 23 20 17 13 14 15 11 12 14 10 8 16 17 12 12 12 13 12 8 7 10 11 12 13 14
24 26 19 16 13 17 22 22 22 21 18 16 17 15 9 9 19 19 23 20 24 20 15 13 12 14 13 15 11 12 16 17 15 16 15 15 15 20 4 7 9 10 11 12 13
23 27 18 13 20 21 23 20 20 20 18 22 20 14 14 18 22 23 23 22 19 16 14 13 14 14 13 15 13 14 15 15 15 14 17 17 16 22 6 8 9 10 11 13 13
25 26 19 19 26 25 22 22 22 20 19 19 17 18 19 21 21 23 22 19 18 18 11 8 14 13 16 17 16 17 17 15 15 17 15 18 17 18 11 10 10 10 11 12 13
23 27 24 24 23 22 23 24 22 20 24 24 22 21 17 18 21 22 20 16 15 16 12 9 15 16 15 19 16 16 13 15 17 18 16 14 14 10 9 9 10 10 11 12 12
24 27 24 30 31 27 24 22 24 22 21 20 17 18 18 20 19 21 20 14 12 13 13 13 15 18 20 19 16 13 13 15 17 15 18 18 12 8 9 10 10 10 11 11 11
26 26 24 26 27 28 25 24 23 24 23 21 18 22 20 20 19 20 19 15 15 13 12 15 15 13 18 16 11 12 14 15 16 16 19 16 14 10 10 10 9 9 10 10 10
24 23 24 27 25 27 27 24 22 23 26 31 26 22 20 20 20 25 23 19 15 12 11 13 10 15 14 11 13 16 14 17 15 15 14 17 14 11 9 8 8 8 8 9 9
Wind_Direction
310 311 311 310 309 309 309 308 309 308 308 300 298 297 292 285 288 286 242 234 267 87 215 116 237 64 20 88 80 86 85 86 89 85 82 96 80 82 76 83 93 110 82 86 81
311 311 311 312 310 309 307 307 305 305 304 297 296 292 293 288 288 253 236 258 62 101 193 105 100 85 55 80 105 94 85 98 92 87 88 82 71 72 66 57 57 61 57 78 92
306 309 310 312 312 311 307 304 303 303 297 293 292 289 292 289 281 280 251 48 84 213 231 241 75 52 64 94 111 96 82 94 95 78 85 81 74 73 65 45 58 67 66 73 77
306 307 309 311 311 309 305 302 301 301 295 287 288 289 288 287 284 270 247 50 88 229 225 241 22 86 58 49 124 67 36 79 84 69 77 82 89 43 47 54 65 68 74 72 68
303 305 306 307 307 305 303 302 300 297 293 287 283 289 296 276 273 275 313 342 199 224 230 73 71 78 30 40 48 57 67 39 63 68 73 66 54 76 52 60 65 69 68 69 73
300 301 302 303 303 302 301 300 298 294 288 282 287 293 289 268 284 314 26 203 233 233 249 285 72 59 357 25 69 61 67 72 57 65 66 67 97 74 72 70 59 59 68 73 62
299 299 299 299 300 301 299 296 295 287 285 296 301 296 283 266 283 308 273 245 239 250 45 276 18 292 338 30 51 78 69 66 69 77 71 81 48 65 84 68 64 69 78 71 61
298 297 298 298 298 300 298 294 293 288 313 329 307 292 271 285 298 278 251 245 247 254 257 249 255 288 345 71 62 49 52 80 117 89 74 48 38 74 75 65 64 68 72 76 65
296 295 296 297 298 299 296 293 288 320 332 331 302 288 271 280 274 268 249 245 248 243 234 258 264 298 11 76 45 57 69 85 90 139 39 46 54 86 83 71 65 64 74 70 61
295 296 296 297 299 300 298 294 317 315 319 307 286 276 271 261 272 274 253 249 255 248 273 294 286 295 305 28 77 32 33 73 46 64 23 26 59 59 74 71 56 60 64 60 57
295 297 297 297 299 299 304 307 302 298 300 276 271 269 261 265 269 258 260 258 262 260 269 282 297 268 286 327 43 28 52 50 24 28 18 54 67 55 62 67 66 81 81 57 54
295 297 297 297 298 296 313 325 327 294 277 277 252 252 250 268 264 257 259 251 258 267 272 276 285 303 315 336 16 41 52 25 20 21 31 70 45 64 78 83 92 107 57 60 44
295 297 298 297 292 313 312 331 308 322 292 279 291 269 259 267 263 255 248 251 255 267 280 275 291 319 309 334 353 104 126 68 35 36 48 59 32 52 62 70 67 80 66 37 35
293 296 298 298 301 299 295 301 302 324 284 281 288 285 255 267 266 256 252 250 258 260 264 282 265 285 292 311 24 83 119 70 89 40 43 52 26 61 69 67 47 40 42 41 38
289 292 295 301 286 287 292 294 300 322 272 296 297 289 258 264 274 255 252 249 254 259 262 274 300 266 270 309 55 339 48 63 54 17 50 38 23 41 55 40 30 41 53 46 38
286 287 291 295 286 281 288 293 312 285 271 289 304 291 272 259 272 264 246 255 254 256 262 264 281 277 302 331 25 64 39 32 17 28 9 35 30 36 41 29 62 54 60 53 42
283 282 281 288 277 294 290 294 277 269 290 281 287 290 282 268 259 260 242 240 248 250 256 277 274 279 306 328 31 36 33 14 27 22 6 33 27 25 28 36 89 82 69 55 52
281 280 281 279 276 287 290 280 266 277 278 299 290 276 273 266 262 261 247 238 240 253 261 267 284 270 295 317 355 110 14 13 24 19 17 24 20 18 23 19 49 80 66 62 58
283 282 277 280 282 286 282 266 269 277 289 291 284 284 278 264 266 264 247 235 238 239 257 277 287 280 284 308 329 343 339 3 7 8 10 14 15 10 19 33 60 68 64 64 56
280 277 273 278 278 278 273 263 269 290 298 296 294 289 285 276 265 262 242 238 238 242 254 287 285 286 292 303 319 335 15 341 348 13 10 13 7 7 31 60 71 66 67 62 54
276 265 275 275 265 267 263 263 269 281 299 297 294 295 318 292 254 250 236 240 236 243 249 278 297 281 287 294 312 324 315 334 358 1 5 5 4 356 79 107 90 79 70 62 55
267 253 280 256 253 260 259 266 276 279 285 268 264 291 285 265 248 241 234 240 243 243 251 270 278 275 284 308 317 318 320 340 355 4 1 5 6 352 71 99 91 76 67 59 57
256 255 265 258 247 252 261 264 268 271 272 267 272 256 265 251 245 238 237 246 242 241 252 254 272 271 285 292 304 303 313 340 358 2 7 359 4 10 47 80 82 74 70 59 54
253 247 251 249 255 254 257 258 261 267 258 258 261 265 276 252 241 240 237 251 248 250 264 287 276 281 289 294 303 303 323 332 347 356 3 5 14 39 65 89 88 75 65 59 55
249 246 249 241 243 250 256 257 256 260 256 262 261 257 259 241 247 239 242 249 257 261 277 293 286 282 289 289 297 306 324 335 350 15 6 9 29 70 91 100 91 76 63 57 60
244 246 251 249 248 248 250 251 255 251 251 252 253 250 249 246 253 245 245 250 258 272 290 293 291 295 290 291 305 318 327 346 357 9 9 21 29 54 78 76 72 75 65 62 69
248 252 251 245 248 243 244 248 252 249 245 236 243 247 248 259 267 247 244 262 273 273 296 296 292 291 295 310 300 309 325 336 358 5 26 15 32 73 78 89 92 81 75 74 77